Location: McFarlands Corners
(41.4117°N, 81.3382°W)
Time: 19:16:58
(UTC+00:00)

Transit 4A - Pass Details

Date: 21 February 2026
Orbit: 864 x 977 km, 66.8° (Epoch: 10 March)

Event Time Altitude Azimuth Distance (km) Brightness Sun altitude
Rises 16:44:57 0° 332° (NNW) 3,611 10.5 36.7°
Reaches altitude 10° 16:47:32 10° 337° (NNW) 2,679 9.9 36.9°
Maximum altitude 16:53:42 57° 56° (NE) 1,123 8.7 37.2°
Drops below altitude 10° 16:59:58 10° 135° (SE) 2,715 11.2 37.4°
Sets 17:02:35 0° 139° (SE) 3,662 11.7 37.5°
